Regional Weather Roundup
Issued by NWS

Home | Current Version | Previous Version | Graphics & Text | Print | Product List | Glossary Off
Versions: 1 2 3 4 5 6 7 8 9 10 11 12 13 14 15 16 17 18 19 20 21 22 23 24 25 26 27 28 29 30 31 32 33 34 35 36 37 38 39 40 41 42 43 44 45 46 47 48 49 50

000
ASUS43 KMPX 250501
RWRMN
WEATHER ROUNDUP FOR MINNESOTA
NATIONAL WEATHER SERVICE TWIN CITIES/CHANHASSEN MN
1200 AM CDT SUN JUN 25 2017


NOTE: "FAIR" INDICATES FEW OR NO CLOUDS BELOW 12,000 FEET WITH NO
SIGNIFICANT WEATHER AND/OR OBSTRUCTIONS TO VISIBILITY. N/A MEANS
CURRENT SKY AND/OR WEATHER CONDITIONS ARE NOT AVAILABLE.

MNZ060>063-068>070-250600-
   Twin Cities Metro

CITY           SKY/WX    TMP DP  RH WIND       PRES   REMARKS
TWIN CITIES    PTCLDY    57  47  69 NW12      30.08R
ST PAUL        CLEAR     58  48  69 W13       30.08R
CRYSTAL        PTCLDY    56  46  69 NW7       30.07R
BLAINE         CLEAR     55  48  76 W12       30.07S
LAKEVILLE      CLEAR     52  46  82 W5        30.09S
EDEN PRAIRIE   CLEAR     58  47  66 NW10      30.08R
SOUTH ST PAUL  CLEAR     57  47  68 W7        30.07S
LAKE ELMO      FAIR      54  46  76 CALM      30.08R
$$
MNZ001>005-007-008-013>017-022>024-027-028-250600-
   Northwest Minnesota

CITY           SKY/WX    TMP DP  RH WIND       PRES   REMARKS
BEMIDJI        CLOUDY    52  51  97 NW13      30.06S
HALLOCK        CLOUDY    52  46  82 NW5       30.17S
ROSEAU         LGT RAIN  50  45  81 NW7       30.13R
WARROAD        RAIN      48  46  93 NW9       30.12R
CROOKSTON      CLOUDY    52  48  87 NW10      30.17R
FOSSTON        DRIZZLE   48  46  93 NW14G20   30.13R
DETROIT LAKES  DRIZZLE   48  46  93 NW16      30.14S
MOORHEAD       CLOUDY    52  43  71 NW12      30.18S
PARK RAPIDS    LGT RAIN  52  48  86 NW12      30.09R FOG
MAHNOMEN       CLOUDY    49  48  95 NW16      30.13R
$$
MNZ006-009>011-018-025>026-250600-
   North Central Minnesota

CITY           SKY/WX    TMP DP  RH WIND       PRES   REMARKS
BAUDETTE       CLOUDY    53  51  93 N10       30.07R
FLAG ISLAND    CLOUDY    54  50  87 NW16      30.08S
INTL FALLS     CLOUDY    54  51  90 N7        30.03S
WASKISH        CLOUDY    55  52  88 N9        30.05S
BIG FORK       CLOUDY    54  50  87 CALM      30.03S
LONGVILLE      CLOUDY    54  52  94 W6        30.05S
GRAND RAPIDS   CLOUDY    55  50  83 W7        30.04S
CRANE LAKE     CLOUDY    54  52  94 CALM      30.03R
ORR            DRIZZLE   54  50  87 NW3       29.99S
COOK           DRIZZLE   54  52  94 CALM      30.02R
WALKER         CLOUDY    51  50  97 W7        30.06S
$$
MNZ012-019>021-037-250600-
   Northeast Minnesota

CITY           SKY/WX    TMP DP  RH WIND       PRES   REMARKS
DULUTH         PTCLDY    52  49  89 NW8       29.99S
ELY            CLOUDY    54  52  94 NW3       30.00S
HIBBING        CLOUDY    52  50  93 NW6       30.01R
EVELETH        CLOUDY    55  46  71 NW5       30.02R
DULUTH HARBOR  CLOUDY    61  52  72 W10       30.00S
TWO HARBORS    CLOUDY    55  52  88 NW3       29.96S
SILVER BAY     CLOUDY    57  50  77 NW3       29.96S
G MARAIS ARPRT CLOUDY    52  48  87 NW5       29.97S
$$
MNZ029>031-032-039>041-046>048-054>057-064-250600-
   West Central Minnesota

CITY           SKY/WX    TMP DP  RH WIND       PRES   REMARKS
FERGUS FALLS   CLOUDY    48  48 100 NW17      30.16R
WHEATON        MOCLDY    54  45  71 NW20      30.21R
MORRIS         CLOUDY    54  46  76 N18G24    30.16R
ALEXANDRIA     CLOUDY    52  46  80 NW16G26   30.14S
ELBOW LAKE     CLOUDY    50  48  94 W16G25    30.17S
WADENA         CLOUDY    50  46  87 NW16      30.11S
GLENWOOD       CLOUDY    54  46  76 NW20G25   30.14R
APPLETON       MOCLDY    57  43  58 NW13G18   30.16S
BENSON         CLOUDY    55  46  71 N10       30.17R
ORTONVILLE     PTCLDY    55  43  62 NW15      30.18S
MADISON        CLOUDY    61  46  59 NW13G18   30.17S
WILLMAR        FAIR      55  50  82 NW8       30.15S
$$
MNZ033>034-036-042>043-049>051-058-059-250600-
   Central Minnesota

CITY           SKY/WX    TMP DP  RH WIND       PRES   REMARKS
ST CLOUD       CLOUDY    54  50  86 NW10      30.09S
SAUK CENTRE    CLOUDY    54  46  73 NW16      30.12S
PAYNESVILLE    CLOUDY    55  47  73 NW9G17    30.12S
AITKIN         CLEAR     52  48  87 W5        30.04S
PINE RIVER     CLOUDY    52  48  87 W5        30.10S
BRAINERD       CLOUDY    53  49  86 NW14G21   30.08R
STAPLES        CLOUDY    50  46  87 W14       30.10S
LONG PRAIRIE   CLOUDY    52  46  82 W10G17    30.11S
LITTLE FALLS   MOCLDY    52  45  76 NW10      30.09S
LITCHFIELD     CLOUDY    57  52  82 NW10      30.12R
BUFFALO        CLOUDY    57  48  72 NW8       30.11R
MAPLE LAKE     CLOUDY    56  50  79 NW10      30.10S
HUTCHINSON     CLOUDY    57  50  77 W10G16    30.13S
$$
MNZ037-044-045-052-053-250600-
   East Central Minnesota

CITY           SKY/WX    TMP DP  RH WIND       PRES   REMARKS
PRINCETON      CLOUDY    55  50  82 W12G21    30.08R
MORA           CLOUDY    54  46  76 W7        30.07S
CAMBRIDGE      PTCLDY    55  46  71 W8        30.05S
RUSH CITY      MOCLDY    52  48  87 W5        30.05S
MOOSE LAKE     CLEAR     50  46  87 W6        30.01S
HINCKLEY       FAIR      50  48  93 W6        30.03F
CLOQUET        PTCLDY    54  45  71 W6        30.00F
MCGREGOR       CLEAR     52  50  93 W6        30.04S
$$
MNZ071>073-080-081-089-090-097-098-250600-
   Southwest Minnesota

CITY           SKY/WX    TMP DP  RH WIND       PRES   REMARKS
MONTEVIDEO     PTCLDY    55  45  67 N12G17    30.16S
GRANITE FALLS  MOCLDY    58  46  63 NW15      30.18S
CANBY          CLOUDY    57  46  66 W14       30.20R
MARSHALL       CLOUDY    56  46  69 NW12      30.18S
REDWOOD FALLS  CLOUDY    58  45  62 NW13      30.15R
OLIVIA         MOCLDY    55  46  71 NW12      30.14R
PIPESTONE      CLOUDY    57  45  62 N10       30.20S
WINDOM         CLEAR     55  43  62 W8        30.17S
WORTHINGTON    MOCLDY    51  43  74 NW8       30.20R
JACKSON        MOCLDY    54  43  66 CALM      30.18R
TRACY          CLOUDY    58  46  65 NW13      30.18S
SLAYTON        CLOUDY    56  44  63 NW14      30.20R
$$
MNZ065>067-074>077-082>085-091>093-250600-
   South Central Minnesota

CITY           SKY/WX    TMP DP  RH WIND       PRES   REMARKS
MANKATO        MOCLDY    55  45  68 W9        30.13R
NEW ULM        PTCLDY    55  45  67 NW12      30.14R
ST JAMES       CLEAR     55  45  67 W10       30.16S
FAIRMONT       CLEAR     53  43  68 NW8       30.16R
GLENCOE        MOCLDY    57  51  79 NW10      30.11R
FARIBAULT      CLOUDY    54  46  76 W6        30.11R
OWATONNA       CLEAR     52  46  82 W6        30.11S
WASECA         CLEAR     50  45  81 W7        30.13R
ALBERT LEA     CLEAR     54  45  71 W3        30.12S
$$
MNZ078>079-086>088-094>096-250600-
   Southeast Minnesota

CITY           SKY/WX    TMP DP  RH WIND       PRES   REMARKS
ROCHESTER      CLEAR     50  46  86 W8        30.10S
RED WING       CLEAR     54  45  71 CALM      30.06S
STANTON        CLEAR     53  47  81 W5        30.08S
DODGE CENTER   CLEAR     54  45  71 W7        30.10S
WINONA         CLEAR     54  50  87 NW5       30.07S
AUSTIN         CLEAR     54  45  71 W5        30.11S
PRESTON        CLEAR     51  44  77 NW8       30.10R
$$
ABBREVIATIONS USED IN REMARKS
   TC - TEMPERATURES IN CELSIUS
  WCI - WIND CHILL INDEX
   HX - HEAT INDEX
  VSB - VISIBILITY
$$



USA.gov is the U.S. government's official web portal to all federal, state and local government web resources and services.